Regional Weather Roundup
Issued by NWS

Home | Current Version | Previous Version | Text Only | Print | Product List | Glossary Off
Versions: 1 2 3 4 5 6 7 8 9 10 11 12 13 14 15 16 17 18 19 20 21 22 23 24 25 26 27 28 29 30 31 32 33 34 35 36 37 38 39 40 41 42 43 44 45 46 47 48 49 50

000
ASUS45 KTFX 221810
RWRMT
MONTANA REGIONAL WEATHER ROUNDUP
NATIONAL WEATHER SERVICE GREAT FALLS MT
1200 PM MDT SUN OCT 22 2017

NOTE: "FAIR" INDICATES FEW OR NO CLOUDS BELOW 12000 FEET WITH NO
SIGNIFICANT WEATHER AND/OR OBSTRUCTIONS TO VISIBILITY.

MTZ001>007-043-221900-
WEST OF THE DIVIDE

CITY           SKY/WX    TMP DP  RH WIND       PRES   REMARKS
KALISPELL      CLOUDY    50  46  86 SE7       29.81R
MISSOULA       LGT RAIN  51  45  79 S16       29.93R
BUTTE          MOSUNNY   51  35  54 SW17G33   29.99S
MULLAN PASS    CLOUDY    34  32  92 W14G33    29.95R WCI  25
ANACONDA         N/A     46  36  66 S25G35    29.95R
HAMILTON         N/A     50  43  76 S9        29.98R
LIBBY            N/A     54  34  47 S5        29.85R
$$

MTZ008-052>055-221900-
SOUTHWEST MONTANA

CITY           SKY/WX    TMP DP  RH WIND       PRES   REMARKS
BOZEMAN        PTSUNNY   59  32  36 SW25G37   29.94R
DILLON         CLOUDY    57  32  38 SW29G39   30.00F
W YELLOWSTONE  CLOUDY    36  34  93 SW21G33   30.16S WCI  24
ENNIS          CLOUDY    54  32  43 S25G36    30.08S
$$

MTZ009-010-012-014-046-048-049-054-221900-
EAST SLOPES AND CENTRAL MONTANA

CITY           SKY/WX    TMP DP  RH WIND       PRES   REMARKS
CUT BANK       PTSUNNY   49  37  63 SW40G49   29.67R
GREAT FALLS    SUNNY     59  34  39 SW33G49   29.75R
MALMSTROM AFB  CLOUDY    59  36  43 W29G40    29.76R
HELENA         CLOUDY    60  37  42 W15G31    29.86F
$$

MTZ011-013-016-021-045-047-050-051-221900-
NORTH CENTRAL MONTANA

CITY           SKY/WX    TMP DP  RH WIND       PRES   REMARKS
HAVRE          SUNNY     63  36  36 W39G55    29.57F
LEWISTOWN      CLOUDY    60  34  37 W36G45    29.76S
N BAR RANCH      N/A     59  30  33 W28G40    29.77S
CHINOOK          N/A     63  37  39 W26G33    29.58S
$$

MTZ017>020-022>027-061-062-221900-
NORTHEAST MONTANA

CITY           SKY/WX    TMP DP  RH WIND       PRES   REMARKS
GLASGOW        CLOUDY    55  41  59 SW9       29.60F
JORDAN           N/A     64  34  32 W22G35    29.65F
SIDNEY         LGT RAIN  48  33  56 SW12      29.67F
WOLF POINT     MOSUNNY   55  40  56 W7        29.61F
MALTA          MOSUNNY   55  41  58 W7        29.61S
PLENTYWOOD       N/A     45  34  65 S14G23    29.59F
POPLAR           N/A     52  36  54 SW5       29.62F
$$

MTZ028>42-056>058-221900-
SOUTHCENTRAL AND SOUTHEAST MONTANA

CITY           SKY/WX    TMP DP  RH WIND       PRES   REMARKS
BAKER          CLOUDY    61  29  29 W24G31    29.76F
BILLINGS       CLOUDY    62  30  29 SW21G36   29.85S
LIVINGSTON     CLOUDY    59  33  37 SW43G60   29.86F
MILES CITY     MOSUNNY   65  33  30 SW28G36   29.74F
FORSYTH          N/A     61  27  27 W13G24    29.77R
$$

REGIONAL REPORTS...DAKOTAS

CITY           SKY/WX    TMP DP  RH WIND       PRES   REMARKS
WILLISTON      CLOUDY    48  29  47 SW12      29.66F
MINOT          CLOUDY    52  27  38 S9        29.68F
DICKINSON      CLOUDY    59  29  31 W22G35    29.71F
BEACH          PTSUNNY   57  28  33 SW16      29.74F
CROSBY         PTSUNNY   46  28  49 S23G32    29.59F
TIOGA          CLOUDY    48  27  43 SW25G31   29.65F
BISMARCK       CLOUDY    59  27  29 SW20G26   29.77F
GRAND FORKS    MOSUNNY   62  32  32 SW22G30   29.77F
FARGO          SUNNY     61  32  33 SW18      29.85F
BUFFALO SD       N/A     63  26  24 W24G31    29.75
RAPID CITY     SUNNY     64  23  21 SE10      29.90F
$$

REGIONAL REPORTS...WYOMING/IDAHO/WASHINGTON

CITY           SKY/WX    TMP DP  RH WIND       PRES   REMARKS
GILLETTE       CLOUDY    59  26  28 SW28G35   29.91F
SHERIDAN       CLOUDY    64  29  26 W16G30    29.87F
BUFFALO WY     CLOUDY    66  23  19 W8        29.93S
CODY           CLOUDY    55  31  39 W21G30    30.00F
YELLOWSTONE LA   N/A     37  33  85 W12G28    30.16F WCI  29
IDAHO FALLS    CLOUDY    52  37  56 SW26G41   30.25S
SALMON         CLOUDY    60  36  40 W22       30.03F
BOISE          CLOUDY    52  42  69 SE9       30.27R
SPOKANE        MOSUNNY   52  38  58 SW30G37   29.99R
$$

REGIONAL REPORTS...ALBERTA

CITY           SKY/WX    TMP DP  RH WIND       PRES   REMARKS
EDMONTON       PTSUNNY   41  32  70 W12       29.47R
CALGARY        MOSUNNY   55  25  30 W20G28    29.50R
LETHBRIDGE     MOSUNNY   54  36  50 W26G38    29.57R
MEDICINE HAT   PTSUNNY   57  37  47 W25G37    29.50R
$$

REGIONAL REPORTS...SASKATCHEWAN

CITY           SKY/WX    TMP DP  RH WIND       PRES   REMARKS
SWIFT CURRENT  SUNNY     55  34  44 W33G43    29.42S
REGINA         PTSUNNY   43  34  70 SE13      29.47F
SASKATOON      LGT RAIN  37  36  93 SE6       29.43F
$$



USA.gov is the U.S. government's official web portal to all federal, state and local government web resources and services.